Simultaneous Nadir Overpasses (SNOs) Predictions

Prediction of SNOs between NOAA-19 and NPP Satellite Orbit:

Table of predicted SNOs for the next 14.0 days since TLE Epoch: 11/8/2013
Index Date (NOAA-19) Time (NOAA-19) Lat,Lon (NOAA-19) SZA (NOAA-19 ) Date (NPP) Time (NPP) Lat,Lon (NPP) SZA (NPP ) Distance(km) Time Diff (sec)
1 11/11/2013 15:29:57 -80.98, 73.61 78.38 11/11/2013 15:30:59 -80.98, 73.74 78.43 2.39 62
2 11/11/2013 16:20:53 80.97,-118.80 101.59 11/11/2013 16:21:43 80.97,-118.64 101.54 2.92 50
3 11/11/2013 17:12:00 -80.97, 48.55 78.42 11/11/2013 17:12:28 -80.97, 48.70 78.46 2.63 28
4 11/11/2013 18:02:56 80.96,-143.86 101.55 11/11/2013 18:03:12 80.95,-143.68 101.51 3.17 16
5 11/11/2013 18:54:02 -80.94, 23.86 78.52 11/11/2013 18:53:56 -80.94, 24.02 78.54 2.87 6
6 11/11/2013 19:44:57 80.92,-168.18 101.40 11/11/2013 19:44:40 80.92,-168.36 101.43 3.17 17
7 11/11/2013 20:36:05 -80.93, -1.20 78.56 11/11/2013 20:35:25 -80.92, -1.03 78.56 3.11 40
8 11/11/2013 21:27:00 80.90, 166.76 101.36 11/11/2013 21:26:09 80.91, 166.59 101.41 2.91 51




NCC Satellite Simultaneous Nadir Overpasses (SNOs) Prediction Service
